Weather observations for the past three days for
Bermuda
| Date | Time (adt) | Wind (mph) | Vis. (mi.) | Weather | Sky Cond. | Temperature (ºF) | Relative Humidity | Wind Chill (°F) | Heat Index (°F) | Pressure | Precipitation (in) | ||||||
|---|---|---|---|---|---|---|---|---|---|---|---|---|---|---|---|---|---|
| Air | Dwpt | 6 hour | altimeter (in) | sea level (mb) | 1 hr | 3 hr | 6 hr | ||||||||||
| Max. | Min. | ||||||||||||||||
| 03 | 15:55 | SW 22 | 0.00 | Overcast and Breezy | FEW013 BKN028 OVC300 | 75.2 | 69.8 | 83% | 75 | 0 | 0.0 | ||||||
| 03 | 14:55 | SW 24 | 0.00 | Mostly Cloudy and Breezy | FEW016 SCT042 BKN072 BKN300 | 77 | 68 | 74% | 79 | 0 | 0.0 | ||||||
| 03 | 13:55 | SW 23 | 0.00 | Mostly Cloudy and Breezy | FEW011 SCT024 BKN080 BKN300 | 77 | 69.8 | 79% | 79 | 0 | 0.0 | ||||||
| 03 | 12:55 | SW 23 | 0.00 | Mostly Cloudy and Breezy | BKN012 BKN024 BKN300 | 77 | 69.8 | 79% | 79 | 0 | 0.0 | ||||||
| 03 | 11:55 | SW 23 | 0.00 | Mostly Cloudy and Breezy | BKN010 BKN021 BKN300 | 77 | 69.8 | 79% | 79 | 0 | 0.0 | ||||||
| 03 | 10:55 | SW 24 | 0.00 | Mostly Cloudy and Breezy | BKN010 BKN300 | 75.2 | 69.8 | 83% | 75 | 0 | 0.0 | ||||||
| 03 | 09:55 | SW 22 | 0.00 | Mostly Cloudy and Breezy | BKN009 BKN300 | 73.4 | 69.8 | 89% | 0 | 0.0 | |||||||
| 03 | 08:55 | SW 22 | 0.00 | Mostly Cloudy and Breezy | BKN008 BKN300 | 73.4 | 69.8 | 89% | 0 | 0.0 | |||||||
| 03 | 07:55 | SW 21 | 0.00 | Mostly Cloudy and Breezy | BKN009 BKN300 | 71.6 | 69.8 | 94% | 0 | 0.0 | |||||||
| 03 | 06:55 | SW 21 | 0.00 | Mostly Cloudy and Breezy | SCT006 BKN014 BKN300 | 71.6 | 69.8 | 94% | 0 | 0.0 | |||||||
| 03 | 05:55 | SW 15 | 0.00 | Mostly Cloudy | BKN006 BKN300 | 71.6 | 69.8 | 94% | 0 | 0.0 | |||||||
| 03 | 04:55 | SW 14 | 0.00 | Mostly Cloudy | BKN006 | 71.6 | 69.8 | 94% | 0 | 0.0 | |||||||
| 03 | 03:55 | SW 14 | 0.00 | Mostly Cloudy | BKN008 | 71.6 | 69.8 | 94% | 0 | 0.0 | |||||||
| 03 | 02:55 | S 14 | 0.00 | Mostly Cloudy | BKN005 | 71.6 | 69.8 | 94% | 0 | 0.0 | |||||||
| 03 | 01:55 | S 14 | 0.00 | Partly Cloudy | SCT006 | 71.6 | 68 | 88% | 0 | 0.0 | |||||||
| 03 | 00:55 | S 13 | 0.00 | Partly Cloudy | FEW008 FEW025 SCT300 | 69.8 | 68 | 94% | 0 | 0.0 | |||||||
| 02 | 23:55 | S 13 | 0.00 | Partly Cloudy | FEW016 FEW031 SCT210 SCT300 | 71.6 | 68 | 88% | 0 | 0.0 | |||||||
| 02 | 22:55 | S 12 | 0.00 | Mostly Cloudy | FEW016 SCT160 BKN210 BKN300 | 71.6 | 68 | 88% | 0 | 0.0 | |||||||
| 02 | 21:55 | S 10 | 0.00 | Partly Cloudy | FEW017 SCT190 SCT300 | 71.6 | 66.2 | 83% | 0 | 0.0 | |||||||
| 02 | 20:55 | S 13 | 0.00 | Mostly Cloudy | FEW020 SCT160 BKN200 BKN300 | 69.8 | 66.2 | 88% | 0 | 0.0 | |||||||
| 02 | 19:55 | SE 12 | 0.00 | Mostly Cloudy | FEW016 BKN082 BKN300 | 69.8 | 64.4 | 83% | 0 | 0.0 | |||||||
| 02 | 18:55 | S 13 | 0.00 | Mostly Cloudy | FEW021 FEW076 BKN300 | 69.8 | 62.6 | 78% | 0 | 0.0 | |||||||
| 02 | 17:55 | SE 13 | 0.00 | Mostly Cloudy | SCT023 BKN170 BKN300 | 71.6 | 60.8 | 69% | 0 | 0.0 | |||||||
| 02 | 16:55 | SE 12 | 0.00 | Mostly Cloudy | BKN150 BKN180 | 71.6 | 60.8 | 69% | 0 | 0.0 | |||||||
| 02 | 15:55 | SE 12 | 0.00 | Partly Cloudy | SCT150 | 71.6 | 60.8 | 69% | 0 | 0.0 | |||||||
| 02 | 14:55 | SE 10 | 0.00 | Mostly Cloudy | FEW030 BKN160 BKN300 | 71.6 | 59 | 65% | 0 | 0.0 | |||||||
| 02 | 13:55 | SE 10 | 0.00 | Mostly Cloudy | FEW030 BKN160 BKN300 | 71.6 | 60.8 | 69% | 0 | 0.0 | |||||||
| 02 | 12:55 | SE 12 | 0.00 | Mostly Cloudy | FEW030 BKN300 | 71.6 | 59 | 65% | 0 | 0.0 | |||||||
| 02 | 11:55 | SE 9 | 0.00 | Mostly Cloudy | FEW030 BKN300 | 71.6 | 57.2 | 61% | 0 | 0.0 | |||||||
| 02 | 10:55 | E 9 | 0.00 | A Few Clouds | FEW030 FEW300 | 69.8 | 57.2 | 64% | 0 | 0.0 | |||||||
| 02 | 09:55 | NE 7 | 0.00 | Partly Cloudy | FEW029 SCT300 | 69.8 | 57.2 | 64% | 0 | 0.0 | |||||||
| 02 | 08:55 | NE 7 | 0.00 | Mostly Cloudy | FEW029 BKN300 | 69.8 | 57.2 | 64% | 0 | 0.0 | |||||||
| 02 | 07:55 | NE 7 | 0.00 | Mostly Cloudy | FEW029 BKN300 | 68 | 57.2 | 69% | 0 | 0.0 | |||||||
| 02 | 06:55 | N 6 | 0.00 | Mostly Cloudy | FEW028 BKN300 | 66.2 | 57.2 | 73% | 0 | 0.0 | |||||||
| 02 | 05:55 | N 8 | 0.00 | Mostly Cloudy | FEW028 BKN300 | 66.2 | 57.2 | 73% | 0 | 0.0 | |||||||
| 02 | 04:55 | N 9 | 0.00 | Overcast | FEW027 OVC300 | 66.2 | 57.2 | 73% | 0 | 0.0 | |||||||
| 02 | 03:55 | N 8 | 0.00 | Overcast | FEW023 OVC250 | 66.2 | 59 | 78% | 0 | 0.0 | |||||||
| 02 | 02:55 | N 9 | 0.00 | Overcast | FEW020 OVC250 | 68 | 57.2 | 69% | 0 | 0.0 | |||||||
| 02 | 01:55 | N 10 | 0.00 | Overcast | FEW019 OVC300 | 68 | 59 | 73% | 0 | 0.0 | |||||||
| 02 | 00:55 | N 13 | 0.00 | Mostly Cloudy | SCT019 BKN300 | 68 | 60.8 | 78% | 0 | 0.0 | |||||||
| 01 | 23:55 | N 12 | 0.00 | Mostly Cloudy | FEW016 BKN300 | 68 | 62.6 | 83% | 0 | 0.0 | |||||||
| 01 | 22:55 | N 12 | 0.00 | Mostly Cloudy | FEW013 BKN300 | 69.8 | 64.4 | 83% | 0 | 0.0 | |||||||
| 01 | 21:55 | NW 10 | 0.00 | Partly Cloudy | FEW017 SCT300 | 69.8 | 64.4 | 83% | 0 | 0.0 | |||||||
| 01 | 20:55 | NW 10 | 0.00 | Mostly Cloudy | FEW017 BKN300 | 69.8 | 64.4 | 83% | 0 | 0.0 | |||||||
| 01 | 19:55 | NW 10 | 0.00 | Mostly Cloudy | SCT016 BKN300 | 69.8 | 66.2 | 88% | 0 | 0.0 | |||||||
| 01 | 18:55 | NW 10 | 0.00 | Overcast | SCT013 OVC300 | 71.6 | 66.2 | 83% | 0 | 0.0 | |||||||
| 01 | 17:55 | W 14 | 0.00 | Mostly Cloudy | FEW013 BKN300 | 71.6 | 66.2 | 83% | 0 | 0.0 | |||||||
| 01 | 16:55 | W 16 | 0.00 | Mostly Cloudy | SCT011 BKN300 | 71.6 | 66.2 | 83% | 0 | 0.0 | |||||||
| 01 | 15:55 | W 18 | 0.00 | Mostly Cloudy | FEW011 BKN300 | 71.6 | 66.2 | 83% | 0 | 0.0 | |||||||
| 01 | 14:55 | W 20 | 0.00 | Mostly Cloudy | FEW012 BKN300 | 73.4 | 66.2 | 78% | 0 | 0.0 | |||||||
| 01 | 13:55 | W 18 | 0.00 | Mostly Cloudy | FEW012 BKN300 | 75.2 | 68 | 78% | 76 | 0 | 0.0 | ||||||
| 01 | 12:55 | W 18 | 0.00 | Partly Cloudy | FEW011 SCT300 | 75.2 | 68 | 78% | 76 | 0 | 0.0 | ||||||
| 01 | 11:55 | W 17 | 0.00 | Mostly Cloudy | BKN012 | 73.4 | 68 | 83% | 0 | 0.0 | |||||||
| 01 | 10:55 | W 20 | 0.00 | A Few Clouds | FEW014 | 73.4 | 68 | 83% | 0 | 0.0 | |||||||
| 01 | 09:55 | SW 21 | 0.00 | Showers in Vicinity and Breezy | FEW011 FEW031 SCT120 | 71.6 | 68 | 88% | 0 | 0.0 | |||||||
| 01 | 08:55 | SW 21 | 0.00 | Light Showers Rain and Breezy | SCT007 BKN033 OVC056 | 69.8 | 68 | 94% | 0 | 0.0 | |||||||
| 01 | 07:55 | SW 22 | 0.00 | Showers in Vicinity and Breezy | SCT012 SCT041 BKN075 BKN130 | 71.6 | 66.2 | 83% | 0 | 0.0 | |||||||
| 01 | 06:55 | SW 21 | 0.00 | Showers in Vicinity and Breezy | FEW013 SCT047 BKN084 BKN130 | 69.8 | 66.2 | 88% | 0 | 0.0 | |||||||
| 01 | 05:55 | SW 17 | 0.00 | Mostly Cloudy | FEW011 BKN093 BKN300 | 69.8 | 66.2 | 88% | 0 | 0.0 | |||||||
| 01 | 04:55 | SW 18 | 0.00 | Mostly Cloudy | BKN011 BKN300 | 69.8 | 66.2 | 88% | 0 | 0.0 | |||||||
| 01 | 03:55 | SW 14 | 0.00 | Showers in Vicinity | BKN010 BKN029 BKN110 | 69.8 | 66.2 | 88% | 0 | 0.0 | |||||||
| 01 | 02:55 | SW 12 | 0.00 | Overcast | FEW012 BKN180 OVC250 | 69.8 | 66.2 | 88% | 0 | 0.0 | |||||||
| 01 | 01:55 | SW 10 | 0.00 | Mostly Cloudy | FEW012 BKN200 | 69.8 | 66.2 | 88% | 0 | 0.0 | |||||||
| 01 | 00:55 | SW 7 | 0.00 | Mostly Cloudy | BKN014 BKN032 BKN130 | 69.8 | 66.2 | 88% | 0 | 0.0 | |||||||
| 30 | 23:55 | SW 7 | 0.00 | Overcast | BKN011 OVC037 | 68 | 66.2 | 94% | 0 | 0.0 | |||||||
| 30 | 22:55 | SW 3 | 0.00 | Light Drizzle | FEW007 OVC022 | 68 | 66.2 | 94% | 0 | 0.0 | |||||||
| 30 | 21:55 | SW 3 | 0.00 | Overcast | BKN006 OVC029 | 66.2 | 66.2 | 100% | 0 | 0.0 | |||||||
| 30 | 19:55 | SW 6 | 0.00 | Mostly Cloudy | FEW012 BKN019 BKN300 | 68 | 62.6 | 83% | 0 | 0.0 | |||||||
| 30 | 18:55 | W 8 | 0.00 | Showers in Vicinity | BKN018 BKN300 | 69.8 | 64.4 | 83% | 0 | 0.0 | |||||||
| 30 | 17:55 | W 9 | 0.00 | Mostly Cloudy | FEW021 SCT036 BKN300 | 69.8 | 60.8 | 73% | 0 | 0.0 | |||||||
| 30 | 16:55 | W 13 | 0.00 | Mostly Cloudy | FEW023 SCT037 BKN300 | 71.6 | 60.8 | 69% | 0 | 0.0 | |||||||
| Date | Time (adt) | Wind (mph) | Vis. (mi.) | Weather | Sky Cond. | Air | Dwpt | Max. | Min. | Relative Humidity | Wind Chill (°F) | Heat Index (°F) | altimeter (in) | sea level (mb) | 1 hr | 3 hr | 6 hr |
| 6 hour | |||||||||||||||||
| Temperature (ºF) | Pressure | Precipitation (in) | |||||||||||||||